Location: Little Arabia
(41.4620°N, 81.7687°W)
Time: 20:41:06
(UTC+00:00)

Cosmos 1300 - Pass Details

Date: 29 October 2020
Orbit: 511 x 514 km, 82.5° (Epoch: 02 December)

Event Time Altitude Azimuth Distance (km) Brightness Sun altitude
Rises 23:22:58 0° 204° (SSW) 2,615 6.8 -11.4°
Reaches altitude 10° 23:25:11 10° 213° (SSW) 1,734 6.0 -11.8°
Maximum altitude 23:28:45 38° 282° (WNW) 800 4.3 -12.5°
Drops below altitude 10° 23:32:21 10° 352° (N) 1,748 5.4 -13.1°
Sets 23:34:36 0° 0° (N) 2,640 6.2 -13.5°
